Regional Weather Roundup
Issued by NWS

Home | Current Version | Previous Version | Graphics & Text | Print | Product List | Glossary On
Versions: 1 2 3 4 5 6 7 8 9 10 11 12 13 14 15 16 17 18 19 20 21 22 23 24 25 26 27 28 29 30 31 32 33 34 35 36 37 38 39 40 41 42 43 44 45 46 47 48 49 50
575
ASUS43 KBIS 290802
RWRND

NORTH DAKOTA REGIONAL WEATHER ROUNDUP
NATIONAL WEATHER SERVICE BISMARCK ND
300 AM CDT WED MAR 29 2017

NOTE: "FAIR" INDICATES FEW OR NO CLOUDS BELOW 12,000 FEET WITH NO
SIGNIFICANT WEATHER AND/OR OBSTRUCTIONS TO VISIBILITY.


NDZ001>003-009>011-017-290900-
NORTHWEST NORTH DAKOTA

CITY           SKY/WX    TMP DP  RH WIND       PRES   REMARKS
WILLISTON      FOG       32  31  96 CALM      30.08F VSB 1/4
MINOT          CLOUDY    42  39  89 CALM      30.08F
MINOT AFB      CLOUDY    38  37  98 S6        30.06F
$$

NDZ018>021-031>035-040>046-290900-
SOUTHWEST NORTH DAKOTA

CITY           SKY/WX    TMP DP  RH WIND       PRES   REMARKS
BISMARCK       CLOUDY    44  40  85 CALM      30.14F
DICKINSON      FAIR      37  36  96 S8        30.07F
GARRISON         N/A     37  34  89 S3        30.09F
HETTINGER ARPT CLEAR     38  37  97 SW6       30.12S
$$

NDZ004>008-012>016-024-026-027-054-290900-
NORTHEAST NORTH DAKOTA

CITY           SKY/WX    TMP DP  RH WIND       PRES   REMARKS
GRAND FORKS    CLEAR     32  31  96 CALM      30.18F
GRND FRKS AFB  CLEAR     30  30 100 W3        30.18F FOG
DEVILS LAKE    FAIR      33  33 100 SE3       30.16F FOG
$$

NDZ022-023-025-028>030-036>039-047>053-290900-
SOUTHEAST NORTH DAKOTA

CITY           SKY/WX    TMP DP  RH WIND       PRES   REMARKS
FARGO          CLOUDY    37  32  82 CALM      30.17S
JAMESTOWN      FAIR      34  34 100 SE3       30.16F FOG
$$





USA.gov is the U.S. government's official web portal to all federal, state and local government web resources and services.